Regional Weather Roundup
Issued by NWS

Home | Current Version | Previous Version | Graphics & Text | Print | Product List | Glossary On
Versions: 1 2 3 4 5 6 7 8 9 10 11 12 13 14 15 16 17 18 19 20 21 22 23 24 25 26 27 28 29 30 31 32 33 34 35 36 37 38 39 40 41 42 43 44 45 46 47 48 49 50
000
ASUS43 KBIS 251201
RWRND

NORTH DAKOTA REGIONAL WEATHER ROUNDUP
NATIONAL WEATHER SERVICE BISMARCK ND
600 AM CST SUN JAN 25 2015

NOTE: "FAIR" INDICATES FEW OR NO CLOUDS BELOW 12,000 FEET WITH NO
SIGNIFICANT WEATHER AND/OR OBSTRUCTIONS TO VISIBILITY.


NDZ001>003-009>011-017-251300-
NORTHWEST NORTH DAKOTA

CITY           SKY/WX    TMP DP  RH WIND       PRES   REMARKS
WILLISTON      CLOUDY    34  29  82 N16       29.99S
6HR MIN TEMP:  34; 6HR MAX TEMP:  37;

MINOT          LGT SNOW  24  21  88 E5        29.94S FOG     WCI  18
MINOT AFB      CLOUDY    23  23 100 N5        29.95S FOG     WCI  17
$$

NDZ018>021-031>035-040>046-251300-
SOUTHWEST NORTH DAKOTA

CITY           SKY/WX    TMP DP  RH WIND       PRES   REMARKS
BISMARCK       CLOUDY    37  32  82 NW10      29.95R
6HR MIN TEMP:  36; 6HR MAX TEMP:  38; 6HR PCP: TRACE;

DICKINSON      CLOUDY    34  28  79 NW12      29.96S
GARRISON         N/A     34  33  96 NW10      29.93R
6HR MIN TEMP:  34; 6HR MAX TEMP:  36;

HETTINGER ARPT CLOUDY    33  27  78 NW17      29.99F
$$

NDZ004>008-012>016-024-026-027-054-251300-
NORTHEAST NORTH DAKOTA

CITY           SKY/WX    TMP DP  RH WIND       PRES   REMARKS
GRAND FORKS    CLEAR     12   8  84 N5        29.99S WCI   4
GRND FRKS AFB  CLEAR     11   7  84 N7        30.01R WCI   0
DEVILS LAKE    CLOUDY    16  10  79 N3        29.96S
$$

NDZ022-023-025-028>030-036>039-047>053-251300-
SOUTHEAST NORTH DAKOTA

CITY           SKY/WX    TMP DP  RH WIND       PRES   REMARKS
FARGO          CLOUDY    22  14  71 N13       29.97R WCI  10
6HR MIN TEMP:  22; 6HR MAX TEMP:  29;

JAMESTOWN      CLOUDY    20  17  88 N5        29.95F WCI  13
$$



USA.gov is the U.S. government's official web portal to all federal, state and local government web resources and services.